Global-33

operational
NORAD ID: 66554 Int'l Des: 2025-267 Owner: BSKG Country: US
LEOCIRCULAR

About Global-33

Description loading...

Live Position

Loading 3D Globe...

Upcoming Passes

Altitude History

Altitude vs Time

uPlot chart will show altitude changes over time

Two-Line Element Set

1 66554U 25267A 26014.06602137 .00007011 00000-0 22694-3 0 9991
2 66554 42.0186 230.2802 0006741 289.2300 70.7808 15.32408112 8362
Epoch: Jan 14, 2026 • Age: 14 hours

Current Status

Altitude 474.0 km
Velocity 7.63 km/s
Sub-Earth Point 38.77°N, 64.31°W
Launch Date Nov 20, 2025
Age 0.1 years
Type other

Technical Details

Classification Payload
Mass 138.00 kg
Dry Mass 134.00 kg
Total Mass 138.00 kg
Length 1.50 m
Diameter 1.00 m
Span 3.00 m
Shape Box+2 pan
Manufacturer LEOSTL
Bus Type BSky
Phase Status In Orbit
Owner/State BSKG/US

Large Constellations

Loading constellations...